Temp
-14 -14 -14 -14 -15 -15 -15 -15 -15 -15 -15 -16 -16 -16 -16 -17 -17 -17 -17 -18 -18 -18 -18 -18 -18 -18 -18 -18 -19 -19 -19 -20 -20 -21 -22 -23 -23 -24 -26 -28 -29 -30 -32 -32
-15 -15 -15 -15 -15 -15 -15 -15 -15 -15 -15 -16 -16 -16 -17 -17 -18 -18 -18 -18 -18 -18 -18 -18 -18 -18 -19 -19 -19 -19 -20 -21 -21 -22 -23 -24 -25 -26 -28 -29 -30 -31 -33 -33
-15 -15 -15 -15 -15 -15 -15 -15 -15 -16 -16 -16 -16 -17 -17 -18 -18 -18 -18 -18 -19 -19 -19 -19 -19 -19 -19 -19 -19 -20 -21 -21 -22 -23 -24 -24 -26 -28 -30 -30 -31 -32 -33 -33
-15 -15 -15 -15 -15 -16 -16 -16 -16 -16 -16 -16 -16 -17 -17 -18 -18 -19 -19 -19 -19 -19 -19 -19 -19 -19 -19 -20 -20 -21 -22 -22 -23 -24 -25 -26 -28 -30 -31 -31 -32 -33 -33 -33
-15 -15 -15 -15 -15 -16 -16 -16 -16 -16 -16 -16 -17 -17 -18 -18 -18 -19 -19 -19 -19 -19 -19 -19 -19 -19 -20 -21 -21 -22 -23 -23 -24 -25 -26 -28 -30 -31 -32 -32 -32 -32 -33 -33
-16 -15 -15 -15 -16 -16 -16 -16 -17 -17 -17 -17 -18 -18 -18 -18 -18 -19 -19 -19 -19 -19 -19 -19 -20 -20 -21 -21 -22 -23 -23 -24 -25 -25 -28 -30 -31 -32 -32 -32 -32 -33 -33 -32
-16 -15 -15 -16 -16 -16 -16 -16 -16 -17 -17 -18 -18 -18 -18 -19 -19 -19 -19 -19 -19 -19 -20 -20 -20 -21 -21 -22 -23 -24 -24 -25 -25 -28 -30 -31 -32 -32 -32 -32 -32 -33 -33 -33
-16 -16 -16 -16 -16 -16 -16 -17 -17 -17 -17 -18 -18 -18 -19 -19 -19 -20 -19 -20 -20 -20 -20 -20 -21 -22 -22 -23 -24 -24 -25 -25 -28 -30 -31 -31 -32 -32 -32 -32 -33 -33 -33 -33
-16 -16 -16 -16 -16 -16 -17 -17 -17 -17 -18 -18 -18 -19 -19 -19 -19 -20 -20 -20 -20 -20 -20 -21 -22 -23 -23 -24 -24 -25 -26 -27 -29 -30 -31 -32 -33 -32 -32 -32 -33 -33 -33 -33
-17 -17 -17 -17 -16 -16 -16 -16 -17 -17 -18 -18 -19 -19 -19 -19 -20 -20 -20 -20 -21 -21 -21 -22 -23 -24 -24 -24 -25 -26 -27 -28 -30 -31 -32 -32 -33 -33 -33 -33 -33 -33 -33 -33
-16 -17 -16 -16 -16 -17 -17 -17 -18 -18 -19 -19 -19 -19 -20 -20 -20 -20 -20 -21 -21 -22 -23 -23 -24 -24 -25 -25 -26 -28 -29 -30 -30 -31 -32 -33 -33 -33 -33 -33 -33 -33 -34 -33
-17 -17 -17 -17 -17 -17 -18 -18 -19 -19 -19 -20 -20 -20 -20 -20 -20 -21 -21 -21 -22 -23 -24 -24 -24 -25 -25 -26 -28 -29 -30 -31 -31 -32 -32 -33 -33 -33 -33 -33 -33 -34 -34 -34
-17 -17 -18 -18 -18 -18 -18 -19 -19 -19 -20 -20 -20 -20 -20 -21 -21 -22 -22 -22 -23 -24 -24 -24 -25 -26 -27 -28 -29 -30 -30 -31 -32 -32 -33 -33 -33 -34 -34 -33 -34 -34 -34 -34
-18 -18 -18 -18 -18 -19 -19 -19 -20 -20 -20 -20 -20 -21 -21 -21 -22 -22 -22 -23 -24 -24 -25 -26 -27 -28 -29 -29 -30 -31 -31 -31 -32 -32 -33 -33 -34 -34 -34 -34 -34 -34 -34 -34
-18 -18 -19 -19 -19 -19 -20 -20 -20 -20 -20 -20 -21 -21 -22 -22 -22 -23 -24 -24 -25 -25 -26 -27 -28 -29 -30 -31 -31 -31 -32 -32 -32 -33 -33 -34 -34 -34 -34 -34 -34 -34 -34 -34
-19 -19 -19 -19 -20 -20 -20 -21 -21 -21 -21 -21 -21 -22 -22 -23 -23 -24 -24 -25 -25 -26 -27 -28 -29 -30 -31 -31 -32 -32 -32 -33 -33 -33 -34 -34 -34 -34 -34 -34 -34 -34 -34 -34
-19 -19 -19 -19 -20 -20 -20 -21 -21 -21 -21 -22 -22 -23 -23 -23 -24 -24 -25 -25 -27 -28 -29 -29 -30 -31 -32 -32 -32 -32 -33 -33 -33 -34 -34 -34 -34 -34 -34 -34 -34 -35 -35 -35
-20 -20 -20 -20 -20 -21 -21 -21 -21 -22 -22 -23 -23 -23 -24 -24 -24 -25 -26 -27 -28 -29 -30 -31 -31 -32 -32 -33 -33 -33 -33 -33 -34 -34 -34 -34 -34 -34 -34 -34 -35 -35 -35 -35
-20 -20 -20 -20 -21 -21 -22 -22 -22 -23 -23 -23 -24 -24 -24 -24 -25 -26 -28 -29 -29 -30 -31 -31 -32 -33 -33 -33 -33 -33 -34 -34 -34 -34 -34 -34 -34 -34 -34 -34 -35 -35 -35 -35
-20 -20 -21 -21 -22 -22 -23 -23 -24 -24 -24 -24 -24 -24 -25 -26 -27 -28 -29 -30 -30 -30 -31 -32 -33 -33 -34 -34 -34 -34 -34 -34 -34 -34 -34 -34 -34 -34 -34 -35 -35 -35 -35 -35
-21 -21 -22 -23 -23 -24 -24 -24 -24 -25 -25 -25 -25 -26 -27 -28 -29 -29 -30 -30 -31 -31 -32 -33 -33 -33 -34 -34 -34 -34 -34 -34 -34 -34 -34 -34 -34 -34 -35 -35 -35 -35 -35 -35
-22 -23 -24 -24 -24 -24 -25 -25 -25 -25 -26 -27 -27 -28 -29 -29 -29 -30 -31 -31 -31 -32 -33 -33 -33 -34 -34 -34 -34 -34 -34 -34 -34 -34 -34 -34 -34 -35 -35 -35 -35 -35 -35 -36
-24 -24 -24 -25 -25 -25 -26 -26 -27 -27 -28 -29 -29 -30 -30 -30 -31 -31 -31 -32 -32 -33 -33 -34 -34 -34 -34 -34 -34 -34 -34 -34 -34 -34 -34 -34 -34 -35 -35 -35 -35 -35 -36 -36
-25 -25 -25 -26 -27 -27 -27 -28 -28 -29 -29 -30 -30 -31 -30 -31 -31 -31 -32 -32 -33 -33 -34 -34 -34 -34 -34 -34 -34 -34 -34 -34 -34 -34 -34 -34 -34 -35 -35 -35 -35 -36 -36 -36
-27 -27 -28 -28 -28 -28 -29 -29 -30 -30 -31 -31 -31 -31 -31 -31 -31 -32 -33 -33 -33 -34 -34 -34 -34 -34 -34 -34 -34 -34 -34 -34 -34 -34 -34 -34 -35 -35 -35 -36 -36 -36 -36 -36
-28 -28 -29 -29 -30 -30 -30 -31 -30 -31 -31 -31 -31 -31 -31 -31 -31 -33 -33 -33 -34 -34 -34 -34 -34 -34 -34 -34 -34 -34 -34 -34 -34 -34 -34 -34 -35 -36 -36 -36 -36 -36 -36 -36
-29 -30 -30 -30 -31 -31 -31 -31 -31 -31 -31 -31 -31 -31 -30 -31 -31 -33 -34 -34 -34 -34 -34 -34 -35 -35 -34 -34 -34 -34 -34 -34 -34 -34 -34 -34 -35 -36 -37 -37 -37 -37 -37 -37
Height
5787 5786 5785 5783 5781 5778 5775 5773 5771 5769 5765 5762 5758 5754 5749 5745 5740 5736 5730 5724 5720 5714 5707 5700 5693 5685 5675 5665 5654 5643 5631 5616 5600 5583 5567 5550 5534 5520 5504 5491 5479 5469 5461 5457
5782 5781 5780 5778 5777 5774 5771 5768 5764 5760 5757 5753 5748 5744 5740 5736 5730 5725 5720 5714 5708 5702 5696 5688 5679 5671 5661 5651 5639 5625 5610 5594 5579 5565 5549 5531 5515 5501 5486 5474 5462 5455 5450 5446
5777 5776 5774 5774 5771 5767 5764 5762 5758 5754 5750 5745 5741 5736 5732 5726 5722 5717 5711 5704 5698 5691 5683 5675 5666 5657 5647 5635 5620 5606 5591 5577 5562 5547 5531 5516 5498 5482 5469 5460 5451 5446 5442 5437
5771 5769 5768 5767 5764 5760 5757 5755 5750 5746 5742 5737 5732 5728 5723 5717 5713 5707 5700 5694 5687 5679 5671 5662 5653 5642 5629 5616 5603 5591 5577 5561 5545 5529 5513 5496 5480 5467 5459 5452 5445 5440 5435 5430
5764 5762 5761 5759 5756 5752 5749 5747 5740 5736 5732 5727 5723 5718 5713 5708 5702 5696 5689 5682 5674 5666 5658 5648 5637 5626 5614 5600 5587 5572 5558 5543 5528 5510 5494 5479 5468 5459 5452 5446 5439 5434 5429 5423
5756 5754 5752 5751 5748 5743 5741 5740 5733 5728 5724 5719 5713 5708 5703 5697 5690 5683 5676 5669 5661 5653 5644 5634 5623 5611 5598 5583 5568 5554 5541 5527 5511 5494 5478 5467 5458 5453 5447 5440 5435 5429 5423 5415
5747 5745 5744 5741 5738 5734 5733 5732 5723 5719 5713 5708 5703 5697 5691 5685 5677 5671 5664 5656 5648 5638 5628 5617 5606 5594 5580 5566 5551 5535 5522 5508 5492 5476 5465 5456 5451 5446 5440 5434 5429 5423 5416 5408
5738 5736 5735 5732 5728 5726 5722 5718 5713 5709 5704 5698 5692 5686 5680 5672 5665 5657 5650 5641 5633 5623 5612 5601 5590 5578 5566 5552 5537 5520 5505 5491 5476 5464 5455 5448 5443 5438 5433 5428 5422 5415 5408 5400
5730 5727 5724 5720 5718 5715 5710 5707 5703 5698 5692 5686 5680 5674 5667 5659 5651 5644 5636 5627 5618 5608 5597 5584 5572 5560 5549 5536 5521 5506 5490 5477 5464 5453 5446 5441 5436 5431 5426 5420 5415 5409 5402 5394
5719 5718 5714 5710 5707 5702 5697 5693 5688 5683 5678 5672 5667 5660 5652 5645 5638 5630 5622 5613 5603 5592 5581 5569 5556 5544 5531 5519 5506 5490 5476 5463 5452 5444 5438 5433 5429 5425 5420 5414 5408 5402 5395 5388
5706 5705 5700 5698 5694 5689 5683 5679 5675 5670 5665 5660 5654 5647 5640 5632 5624 5616 5606 5597 5586 5575 5564 5553 5542 5529 5516 5503 5490 5476 5462 5451 5442 5435 5430 5426 5422 5418 5413 5408 5402 5396 5390 5383
5695 5691 5688 5686 5681 5677 5672 5668 5664 5658 5653 5648 5640 5633 5626 5618 5610 5600 5591 5581 5571 5559 5549 5538 5526 5515 5503 5489 5476 5464 5452 5442 5433 5428 5423 5419 5415 5411 5406 5401 5396 5390 5384 5377
5684 5680 5677 5673 5668 5664 5661 5657 5651 5646 5639 5633 5626 5619 5612 5604 5595 5585 5576 5565 5555 5544 5533 5523 5510 5497 5486 5475 5463 5453 5443 5434 5426 5421 5416 5412 5408 5404 5399 5394 5389 5384 5378 5373
5672 5669 5665 5660 5656 5652 5648 5644 5639 5632 5626 5620 5613 5605 5597 5589 5580 5569 5560 5550 5539 5528 5517 5505 5493 5480 5470 5460 5451 5442 5433 5425 5418 5413 5409 5405 5401 5398 5393 5389 5383 5378 5373 5368
5659 5655 5650 5646 5643 5639 5634 5629 5623 5618 5612 5606 5598 5590 5582 5574 5564 5554 5543 5534 5524 5512 5500 5488 5477 5466 5456 5447 5439 5431 5424 5417 5411 5406 5402 5398 5395 5391 5387 5383 5379 5374 5369 5363
5646 5643 5639 5635 5630 5626 5620 5615 5610 5604 5598 5590 5582 5575 5566 5558 5548 5538 5528 5518 5507 5497 5483 5473 5462 5452 5443 5436 5428 5421 5415 5409 5404 5400 5396 5392 5388 5384 5380 5377 5373 5368 5363 5358
5632 5630 5626 5621 5616 5611 5607 5602 5596 5589 5582 5575 5567 5559 5550 5542 5533 5523 5512 5500 5488 5477 5466 5457 5449 5440 5431 5425 5418 5412 5407 5401 5397 5393 5389 5385 5381 5378 5374 5371 5367 5363 5358 5353
5620 5616 5613 5608 5603 5598 5593 5586 5580 5573 5565 5558 5551 5542 5534 5526 5518 5508 5496 5485 5474 5463 5452 5442 5434 5427 5420 5414 5408 5403 5398 5394 5390 5386 5382 5378 5375 5372 5368 5365 5361 5357 5353 5349
5607 5602 5597 5592 5588 5582 5576 5570 5564 5556 5549 5543 5535 5527 5518 5508 5499 5490 5480 5469 5458 5450 5440 5430 5422 5415 5409 5404 5399 5394 5390 5387 5382 5379 5375 5372 5369 5366 5363 5359 5356 5352 5348 5344
5592 5586 5580 5575 5570 5565 5559 5553 5546 5539 5532 5526 5519 5510 5500 5489 5482 5474 5464 5454 5442 5436 5427 5419 5412 5406 5400 5395 5390 5386 5382 5380 5376 5372 5369 5366 5363 5360 5357 5353 5350 5347 5343 5339
5574 5570 5565 5559 5553 5548 5543 5537 5531 5524 5516 5508 5500 5493 5484 5475 5467 5457 5450 5442 5431 5422 5415 5408 5401 5396 5391 5387 5383 5378 5375 5372 5369 5366 5363 5359 5356 5353 5350 5347 5343 5340 5337 5333
5556 5553 5550 5546 5541 5533 5527 5521 5515 5507 5499 5490 5482 5475 5469 5462 5454 5446 5434 5425 5420 5412 5405 5398 5392 5387 5383 5380 5376 5372 5368 5364 5361 5358 5355 5352 5349 5346 5343 5340 5336 5333 5330 5326
5543 5540 5535 5530 5524 5518 5510 5503 5496 5489 5483 5475 5468 5460 5454 5447 5439 5432 5429 5418 5409 5403 5396 5390 5385 5380 5377 5374 5370 5366 5362 5358 5354 5350 5347 5344 5341 5338 5335 5331 5329 5326 5322 5319
5527 5522 5517 5511 5506 5500 5494 5487 5480 5473 5467 5460 5453 5445 5440 5434 5428 5418 5411 5405 5399 5393 5388 5383 5378 5374 5371 5367 5364 5359 5355 5351 5347 5342 5338 5335 5332 5328 5325 5323 5320 5317 5314 5311
5510 5505 5500 5495 5489 5483 5478 5473 5467 5460 5454 5447 5439 5431 5424 5418 5413 5406 5398 5393 5388 5383 5380 5375 5370 5367 5363 5359 5355 5351 5347 5342 5338 5333 5329 5325 5321 5318 5316 5313 5310 5307 5305 5302
5495 5490 5484 5478 5473 5467 5462 5457 5452 5446 5439 5434 5427 5418 5412 5404 5395 5389 5385 5380 5376 5373 5369 5365 5362 5357 5353 5349 5345 5341 5336 5332 5327 5323 5319 5314 5311 5308 5305 5303 5300 5298 5295 5293
5479 5474 5469 5464 5458 5451 5446 5440 5435 5431 5423 5416 5412 5405 5397 5388 5381 5375 5371 5368 5365 5361 5358 5355 5351 5347 5343 5339 5334 5330 5325 5321 5316 5312 5307 5303 5299 5297 5294 5292 5290 5287 5285 5283
Wind_Speed
9 11 13 15 17 20 22 24 24 25 27 24 22 24 27 29 31 33 35 38 40 43 48 51 54 58 63 68 72 76 80 84 89 93 94 94 95 93 86 77 71 62 50 48
14 16 16 17 19 22 24 26 28 31 31 31 32 32 32 31 32 34 37 41 44 48 52 54 58 63 67 71 75 80 84 88 92 92 93 94 92 88 76 65 58 49 42 49
19 21 22 21 24 26 28 30 31 33 34 35 36 35 34 35 36 39 42 46 49 52 54 57 62 67 70 74 79 83 87 89 90 90 92 92 88 75 61 51 41 33 36 44
23 25 26 26 27 30 32 31 34 36 37 39 40 39 39 40 40 43 46 48 52 54 56 61 65 69 74 77 81 84 86 88 88 90 92 89 73 57 43 33 26 30 38 39
28 28 29 29 31 35 35 34 38 39 41 43 44 43 43 43 45 46 48 50 52 56 60 63 67 71 75 79 82 84 87 87 88 91 88 74 55 38 33 34 31 29 35 40
32 33 34 33 35 37 39 38 39 40 43 42 43 44 45 47 49 50 50 53 56 60 63 66 69 73 77 81 83 85 88 87 89 87 75 57 41 31 32 33 31 33 38 41
35 37 37 37 38 42 42 41 45 46 47 46 45 46 47 50 50 50 52 56 59 62 66 70 74 77 80 81 84 86 86 87 87 75 59 45 33 30 32 33 33 35 40 42
38 38 39 40 43 44 44 45 48 48 48 48 48 48 51 52 51 53 56 59 62 67 71 75 78 79 80 82 84 83 85 87 76 61 49 37 30 30 32 32 33 36 40 41
38 38 39 43 45 46 44 48 52 50 49 52 51 51 55 53 54 57 60 63 68 72 75 78 78 78 79 82 81 81 84 79 67 53 42 33 30 31 33 31 33 36 38 39
39 37 40 44 46 47 51 55 53 52 53 53 53 56 57 57 57 61 65 69 73 76 77 76 76 78 81 81 80 82 78 69 58 45 36 31 30 30 32 31 33 35 37 37
44 42 46 45 47 52 55 56 53 53 53 54 56 58 58 58 61 65 69 74 76 77 75 74 76 79 78 79 80 74 69 60 51 37 33 30 30 31 33 33 33 33 35 35
42 42 43 45 50 53 53 52 52 53 54 56 59 59 59 62 66 70 74 76 75 73 73 76 78 77 78 78 72 67 61 52 43 33 31 30 31 31 33 33 32 32 33 34
40 41 43 45 49 52 51 52 52 53 54 58 59 60 63 67 70 73 75 75 74 72 75 77 76 78 76 71 66 60 53 44 37 33 29 30 29 29 32 32 30 30 32 33
40 42 45 48 50 50 50 51 51 52 56 58 59 63 66 70 72 75 76 74 72 74 76 77 76 74 71 65 59 54 46 39 33 30 28 28 27 28 29 28 27 29 30 32
44 46 48 50 50 51 52 54 55 57 61 63 65 66 69 72 74 75 72 71 73 76 77 76 73 70 64 59 54 49 41 35 30 28 26 26 27 27 28 26 25 27 29 32
43 45 48 49 51 53 53 53 58 62 65 66 68 69 72 74 74 71 71 75 76 77 76 74 69 64 59 53 49 44 38 33 28 28 27 27 27 27 24 24 25 25 28 31
44 45 47 49 49 49 50 55 61 65 67 70 70 71 72 71 69 71 75 78 77 75 72 69 65 59 53 48 44 40 36 33 28 28 27 26 24 22 23 24 23 24 27 30
49 51 50 50 52 54 57 61 64 67 68 70 70 70 68 68 72 78 78 75 73 71 69 65 58 52 47 43 40 37 34 31 28 26 26 22 20 21 23 22 22 24 26 28
52 52 56 57 57 59 63 65 65 66 68 69 66 67 72 77 79 76 73 71 68 66 61 55 50 45 41 39 37 34 31 29 26 24 22 20 20 22 23 23 22 23 25 26
55 58 60 61 59 59 61 63 63 65 64 64 70 75 76 75 74 71 67 64 63 58 52 46 44 40 37 37 34 32 28 26 25 22 20 20 21 23 24 24 23 23 24 26
59 60 60 59 57 56 59 62 60 61 68 72 71 71 71 70 67 64 61 55 54 50 46 43 40 37 34 31 30 29 27 26 24 23 23 23 24 26 26 25 24 24 25 26
58 57 54 54 57 58 57 61 66 68 67 68 68 68 66 63 60 55 54 53 50 45 43 40 38 33 28 26 27 27 27 26 27 27 27 27 27 27 28 27 25 24 25 26
49 53 54 52 56 61 63 63 63 63 64 64 63 62 61 59 56 54 49 47 45 41 39 38 35 29 23 23 24 25 26 27 28 28 28 29 29 29 29 29 28 27 26 26
50 56 60 61 60 58 58 60 61 61 60 59 58 59 59 56 55 54 49 45 41 38 36 36 33 27 24 25 27 29 30 30 29 30 30 30 30 29 28 29 29 28 26 27
58 55 55 55 57 58 59 57 56 55 56 56 58 59 58 58 55 51 46 43 39 37 35 36 34 31 31 32 34 35 36 36 35 34 32 31 32 31 31 30 29 28 28 29
52 54 55 56 55 55 54 55 55 54 56 57 56 55 55 56 58 50 42 41 38 37 37 37 36 35 35 37 38 39 40 39 38 36 36 35 33 34 33 31 31 31 31 30
51 51 52 52 53 54 54 55 57 56 56 54 51 51 53 55 57 46 39 40 38 38 38 39 37 37 38 38 38 39 39 38 37 37 37 36 34 35 35 35 34 34 33 33
Wind_Direction
263 275 285 298 310 316 321 324 324 326 329 330 325 318 311 308 304 303 301 299 300 303 307 309 309 310 311 313 314 314 315 315 315 317 318 317 318 317 313 310 306 306 305 296
273 280 287 296 302 306 310 317 322 325 326 327 326 324 321 314 309 305 303 305 306 307 309 309 310 311 313 314 315 318 316 317 317 319 318 318 317 315 313 309 308 304 295 304
272 279 283 290 299 303 309 318 322 322 323 322 320 319 318 313 308 305 304 306 309 308 308 309 312 313 314 317 318 317 317 317 318 319 318 318 316 315 314 313 311 318 311 314
275 279 284 291 299 302 309 316 318 319 318 317 317 318 317 314 310 305 304 306 308 309 310 313 312 315 317 316 316 316 317 318 320 319 319 318 319 318 318 323 318 314 316 315
273 277 283 291 297 303 307 318 316 317 318 317 316 315 316 313 310 306 305 307 308 310 312 313 315 316 314 314 316 318 319 319 319 320 319 320 319 317 318 318 319 319 313 315
273 279 285 291 296 300 308 313 312 314 315 311 310 311 311 311 310 308 308 308 308 311 313 314 315 315 315 316 318 318 319 319 320 320 321 320 318 312 317 313 312 314 318 323
275 280 285 291 296 299 306 310 312 312 311 308 307 307 310 312 310 307 306 307 310 313 314 315 317 317 317 317 318 319 319 320 321 321 321 319 315 310 314 313 311 315 320 325
275 281 286 290 293 301 305 309 308 306 305 304 303 308 312 311 309 308 308 311 313 314 316 318 318 316 317 318 318 319 319 321 321 320 319 315 310 312 315 313 314 316 320 324
278 283 289 291 297 301 301 302 303 304 303 303 307 309 311 310 309 310 311 313 314 316 318 317 316 316 317 317 318 318 319 321 320 317 316 312 309 311 312 312 314 316 320 325
281 285 289 292 297 299 300 302 304 304 304 305 305 310 310 310 310 310 312 314 316 317 316 315 316 316 317 317 318 318 321 322 318 314 310 308 306 309 311 313 314 318 322 324
284 290 290 296 295 297 301 302 302 302 302 304 308 308 309 309 310 312 313 315 316 315 314 314 315 316 317 317 317 322 322 321 317 309 306 304 303 305 309 311 313 317 321 325
287 287 290 292 295 296 296 297 298 300 303 304 306 307 307 308 310 311 313 314 314 313 314 315 316 316 315 315 321 324 321 319 315 309 306 306 303 303 305 309 312 316 322 328
284 287 289 290 291 293 295 296 298 301 301 304 305 305 305 307 309 310 312 313 313 314 315 316 314 313 315 321 324 322 320 317 312 311 307 306 306 305 306 310 313 318 323 328
287 289 289 289 291 293 294 295 296 297 301 305 306 306 306 308 309 311 312 312 313 314 315 313 312 316 320 322 323 320 320 316 312 312 310 308 308 309 309 310 312 317 322 328
290 290 291 293 295 295 295 297 295 298 303 306 307 306 307 308 309 310 311 312 314 313 312 312 317 318 320 321 320 319 320 316 314 313 313 311 310 311 311 308 310 316 321 329
289 291 293 296 295 294 295 294 296 299 302 304 306 305 306 308 309 309 312 314 313 311 312 315 317 318 319 318 316 317 318 312 310 312 311 310 311 311 309 308 312 316 322 330
291 296 298 298 299 295 293 292 295 298 301 302 303 304 306 308 309 312 313 312 311 313 315 315 316 316 315 313 314 315 316 312 305 307 309 309 311 310 310 310 311 316 323 330
287 294 297 296 294 294 293 295 297 299 299 301 303 304 306 308 311 313 311 311 312 313 314 315 315 314 312 311 314 315 312 311 306 304 305 307 306 310 312 310 309 315 320 328
287 294 297 296 296 295 294 295 295 296 299 302 304 306 309 311 311 309 311 312 313 313 314 314 313 312 310 311 313 312 307 310 310 307 305 304 305 308 313 311 308 312 318 324
293 295 296 295 292 289 289 294 297 299 301 304 307 309 309 307 309 311 313 314 313 315 315 315 314 312 310 312 313 310 304 305 307 306 306 303 302 305 309 311 306 308 314 319
293 292 289 286 288 291 293 294 298 301 305 306 306 305 306 308 312 314 315 316 316 318 318 318 316 312 310 310 312 310 303 300 303 304 304 304 304 303 304 307 302 304 309 313
285 284 283 286 289 291 294 300 305 305 303 303 304 306 307 310 313 316 317 316 319 319 320 320 319 315 312 311 311 315 311 305 301 301 302 303 302 303 299 303 300 299 304 307
281 285 288 288 295 302 304 303 301 300 300 302 304 306 309 312 314 312 311 312 315 317 321 321 318 312 309 312 317 318 317 312 307 304 302 301 298 296 296 295 298 295 299 302
284 291 299 303 304 300 298 297 298 300 302 304 306 307 309 311 311 310 312 312 312 315 318 320 315 306 304 308 312 315 317 316 314 309 302 301 301 298 297 294 294 294 294 299
303 302 298 294 293 293 294 297 299 301 302 305 306 307 308 308 310 313 310 309 309 309 311 315 317 305 301 303 307 309 311 312 312 310 308 302 298 297 294 290 289 291 292 293
292 291 292 294 296 297 298 298 299 302 303 303 303 303 304 308 313 312 307 306 306 304 305 308 310 310 307 304 304 305 306 307 306 306 305 302 296 292 291 288 285 287 290 290
293 295 295 296 296 297 300 301 302 301 300 301 302 303 307 311 312 309 304 304 303 302 302 303 305 306 307 307 306 306 306 306 305 304 302 299 292 287 286 286 285 287 289 290